SCP
0 0 0 0 0 0 0 0 0 0 0 0 0 0 0 0 0 0 0 0 0 0 0 0 0 0 0 0 0 0 0 0 0 0 0 0 0 0
0 0 0 0 0 0 0 0 0 0 0 0 0 0 0 0 0 0 0 0 0 0 0 0 0 0 0 0 0 0 0 0 0 0 0 0 0 0
0 0 0 0 0 0 0 0 0 0 0 0 0 0 0 0 0 0 0 0 0 0 0 0 0 0 0 0 0 0 1 0 0 0 0 0 0 0
0 0 0 0 0 0 0 0 0 0 0 0 0 0 0 0 0 0 0 0 0 0 0 0 0 0 0 0 0 0 0 0 0 0 0 0 0 0
0 0 0 0 0 0 0 0 0 0 0 0 0 0 0 0 0 0 0 0 0 0 0 0 0 0 0 0 0 0 0 0 0 0 0 0 0 0
0 0 0 0 0 0 0 0 0 0 0 0 0 0 0 0 0 0 0 0 0 0 0 0 0 0 0 0 0 0 0 0 0 0 0 0 0 0
0 0 0 0 0 0 0 0 0 0 0 0 0 0 0 0 0 0 0 0 0 0 0 0 0 0 0 0 0 0 0 0 0 0 0 0 0 0
0 0 0 0 0 0 0 0 0 0 0 0 0 0 0 0 0 0 0 0 0 0 0 0 0 0 0 0 0 0 0 0 0 0 0 0 0 0
0 0 0 0 0 0 0 0 0 0 0 0 0 0 0 0 0 0 0 0 0 0 0 0 0 0 0 0 0 0 0 0 0 0 0 0 0 0
0 0 0 0 0 0 0 0 0 0 0 0 0 0 0 0 0 0 0 0 0 0 0 0 0 0 0 0 0 0 0 0 0 0 0 0 0 0
0 0 0 0 0 0 0 0 0 0 0 0 0 0 0 0 0 0 0 0 0 0 0 0 0 0 0 0 0 0 0 0 0 0 0 0 0 0
0 0 0 0 0 0 0 0 0 0 0 0 0 0 0 0 0 0 0 0 0 0 0 0 0 0 0 0 0 0 0 0 0 0 0 0 0 0
0 0 0 0 0 0 0 0 0 0 0 0 0 0 0 0 0 0 0 0 0 0 0 0 0 0 0 0 0 0 0 0 0 0 0 0 0 0
-0 -0 -0 0 0 0 0 0 0 0 0 0 0 0 0 0 0 0 0 0 0 0 0 0 0 0 0 0 0 0 0 0 0 0 0 0 0 0
-0 -0 -0 0 0 0 0 0 0 0 0 0 0 0 0 0 0 0 0 0 0 0 0 0 0 0 0 0 0 0 0 0 0 0 0 0 0 0
-0 -0 0 0 0 0 0 0 0 0 0 0 0 0 0 0 0 0 0 0 0 0 0 0 0 0 0 0 0 0 0 0 0 0 0 0 0 0
-0 0 0 0 0 0 0 0 0 0 0 0 0 0 0 0 0 0 0 0 0 0 0 0 0 0 0 0 0 0 0 0 0 0 0 0 0 0
-0 -0 0 -0 0 0 0 0 0 0 0 0 0 0 0 0 0 0 0 0 0 0 0 0 0 0 0 0 0 0 0 0 0 0 0 0 0 0
-0 -0 -0 -0 -0 0 0 0 0 0 0 0 0 0 0 0 0 0 0 0 0 0 0 0 0 0 0 0 0 0 0 0 0 0 0 0 0 0
-0 -0 -0 -0 -0 0 0 0 0 0 0 0 0 0 0 0 0 0 0 0 0 0 0 0 0 0 0 0 0 0 0 0 0 0 0 0 0 0
-0 -0 -0 -0 -0 0 0 0 0 0 0 0 0 0 0 0 0 0 0 0 0 0 0 0 0 0 0 0 0 0 0 0 0 0 0 0 0 0
-0 -0 -0 -0 -0 0 0 0 0 0 0 0 0 0 0 0 0 0 0 0 0 0 0 0 0 0 0 0 0 0 0 0 0 0 0 0 0 0
0 0 0 0 0 0 0 0 0 0 0 0 0 0 0 0 0 0 0 0 0 0 0 0 0 0 0 0 0 0 0 0 0 0 0 0 0 0
Wind_Speed_500mb
84 80 82 101 96 89 92 95 97 76 77 88 91 85 91 89 84 80 72 68 66 66 71 78 85 92 95 97 85 72 77 70 60 52 46 38 36 34
64 65 60 76 77 77 80 81 88 99 88 89 94 89 79 81 78 83 77 72 72 77 72 76 85 94 101 95 91 82 83 81 69 60 53 49 42 38
63 54 57 63 65 73 82 90 88 78 95 92 100 94 91 86 79 82 82 80 79 76 77 79 81 88 98 100 99 94 95 94 78 65 62 54 45 40
53 59 60 70 74 82 78 87 93 73 78 87 92 93 101 101 106 96 90 92 87 83 75 77 77 82 87 97 104 103 98 100 86 71 68 56 50 44
36 41 40 42 39 46 54 61 54 60 63 77 93 90 92 100 100 102 98 98 93 89 81 75 73 76 79 82 104 107 104 107 90 74 71 61 55 47
30 34 36 38 42 43 44 48 52 56 59 66 73 72 70 76 81 84 87 84 86 81 78 78 75 75 71 74 104 111 108 115 95 80 73 62 57 56
27 28 32 36 39 42 45 48 53 56 59 61 65 66 63 61 61 65 72 73 73 72 72 74 73 70 61 71 100 111 113 113 105 85 77 68 67 64
15 17 23 27 29 34 39 41 43 50 54 57 63 67 68 69 70 69 69 71 78 70 65 66 63 65 62 70 102 112 111 116 90 84 81 77 72 66
22 23 23 27 30 31 31 33 36 39 44 51 60 60 67 65 69 73 71 72 73 71 70 73 62 58 58 67 100 113 108 106 85 86 83 81 72 66
28 28 32 33 35 39 41 41 42 44 46 50 56 60 59 60 60 62 64 68 72 66 64 67 62 57 60 72 97 104 107 95 75 91 86 81 74 67
33 35 38 43 48 50 51 53 53 53 51 52 54 57 58 56 54 58 58 59 66 68 58 58 55 55 60 72 82 97 101 86 81 92 86 79 75 65
38 38 42 46 53 56 57 59 61 63 65 63 62 60 59 55 50 48 49 53 57 55 50 48 53 47 41 59 69 81 83 78 93 88 81 74 72 69
39 46 52 55 51 52 55 58 60 59 57 59 60 60 58 55 49 40 34 31 45 53 46 33 46 47 38 38 68 78 85 85 85 78 73 72 69 65
53 54 52 49 48 51 52 53 54 54 55 57 57 59 60 56 48 39 33 27 28 38 39 37 36 46 57 42 74 79 83 84 83 77 71 63 58 55
54 50 45 44 45 45 48 49 52 56 57 58 60 57 53 50 46 41 33 32 28 27 26 23 30 35 49 53 70 80 84 78 75 74 66 64 61 56
48 43 42 42 46 46 46 49 50 52 53 52 52 49 46 45 46 43 40 36 30 23 16 14 20 22 31 43 64 82 84 65 71 68 69 65 58 55
38 34 37 41 42 46 50 51 51 50 51 51 49 47 46 46 46 44 38 34 28 21 15 9 3 10 25 38 62 80 77 62 71 70 67 65 56 51
36 42 43 46 49 51 52 53 54 54 53 49 46 44 45 47 48 45 39 31 23 18 14 10 1 7 24 41 50 71 68 64 70 66 64 60 54 49
39 43 45 47 49 50 53 54 56 54 49 45 44 41 39 40 42 41 37 28 21 17 15 10 6 14 30 37 37 46 55 62 70 63 49 46 51 48
42 43 44 44 45 47 47 48 49 48 47 45 40 38 37 37 35 33 31 26 22 17 14 12 6 13 32 44 51 45 36 46 54 49 46 39 41 43
39 40 40 40 41 42 43 44 45 46 46 44 41 38 35 33 30 29 25 24 21 20 21 21 16 9 6 31 57 51 47 40 37 39 40 37 40 39
33 34 35 36 36 37 38 39 40 40 41 43 43 40 37 33 30 27 24 22 21 21 25 27 23 16 26 41 57 55 50 44 35 32 36 30 33 28
26 27 30 31 32 33 34 36 38 38 39 40 41 41 38 34 31 28 30 28 26 23 23 25 27 27 36 43 48 53 52 47 41 36 31 29 27 21
Wind_Direction_500mb
283 283 285 276 265 272 274 275 275 270 271 284 287 295 299 299 296 293 295 288 287 280 267 265 262 259 252 248 239 226 227 234 221 213 224 224 228 232
271 285 290 288 277 273 276 278 281 278 268 280 285 297 293 293 295 293 293 293 288 288 280 267 263 260 250 245 242 229 225 232 223 215 216 224 225 225
290 278 280 280 280 284 279 276 284 282 280 293 297 296 299 294 293 295 293 297 288 285 280 281 269 259 248 241 236 233 224 228 223 217 213 216 222 214
272 269 273 279 281 283 286 286 286 283 280 285 291 292 297 296 294 291 294 292 292 291 292 286 278 268 259 239 233 229 224 222 221 220 213 207 210 208
275 272 278 278 277 272 270 270 263 268 277 286 292 293 292 291 293 295 296 295 295 296 292 289 283 278 265 254 230 226 224 221 219 217 212 205 204 204
273 283 286 288 289 291 291 287 287 288 288 286 286 290 290 291 291 291 292 291 292 291 290 286 283 278 267 244 227 224 223 220 216 222 209 203 201 202
295 297 296 295 298 303 304 303 302 300 301 300 300 298 300 300 298 297 294 294 292 290 287 282 279 273 260 232 229 224 221 221 220 215 205 200 201 205
327 327 322 316 318 319 315 314 314 314 311 309 307 306 305 304 302 298 294 290 290 288 286 281 278 270 258 233 225 224 219 218 224 220 203 201 203 207
29 25 15 4 360 356 354 350 337 327 321 318 315 315 312 309 302 299 297 292 288 288 283 279 275 268 256 237 222 221 219 217 224 216 201 201 202 206
38 28 20 11 3 1 359 355 351 345 335 330 329 325 317 312 305 301 295 291 285 280 277 271 267 257 246 234 221 222 219 218 229 203 202 201 199 203
40 31 23 15 11 7 360 356 353 349 345 339 331 326 322 317 308 301 300 295 288 283 275 265 261 241 231 228 221 216 218 222 213 202 203 203 199 198
38 34 28 23 15 7 3 359 356 355 349 343 338 334 330 326 320 308 298 289 282 280 280 261 250 231 217 222 219 213 218 216 206 204 204 201 199 196
42 36 29 22 13 8 6 3 0 353 348 344 342 338 337 335 331 324 310 300 290 287 282 282 247 226 214 196 196 198 206 207 199 200 199 198 203 205
39 33 25 17 12 11 8 7 1 357 357 355 352 349 346 346 348 344 339 328 312 295 292 288 261 239 221 196 183 190 200 197 194 190 192 197 205 206
35 28 22 18 16 15 13 8 5 5 3 2 360 358 358 357 358 355 359 357 347 322 302 294 260 251 221 203 181 182 181 184 189 188 189 193 193 190
33 25 21 20 20 19 16 13 12 10 9 6 5 4 5 8 10 10 8 4 357 347 315 283 271 272 234 213 196 179 180 171 184 190 190 188 189 190
27 23 23 25 25 24 21 17 17 15 13 10 10 12 14 15 15 14 9 9 6 360 359 3 342 236 211 195 185 182 180 178 181 185 186 180 180 184
22 29 30 31 29 27 24 21 19 19 17 13 13 16 20 21 18 15 13 14 24 33 40 59 42 199 178 166 184 177 177 177 178 181 181 180 174 178
32 36 34 33 32 29 27 24 22 19 16 15 15 16 19 22 22 21 25 26 30 45 59 71 137 192 173 150 157 180 179 171 170 172 183 188 179 173
39 38 36 34 31 29 27 26 25 22 20 21 19 20 22 26 24 31 37 37 39 48 55 53 76 167 163 150 147 153 174 178 178 175 168 167 167 168
40 38 37 35 33 30 29 28 27 25 25 26 28 27 28 28 33 39 44 48 47 57 68 75 79 116 173 157 140 144 161 174 180 181 171 171 170 171
42 44 41 39 38 36 34 33 32 33 35 37 36 34 35 36 43 54 55 52 58 63 73 74 76 97 133 155 142 140 145 152 154 158 161 164 168 182
37 41 51 50 46 44 42 41 38 39 41 45 45 42 41 43 52 59 63 63 63 69 73 83 95 110 128 136 141 144 150 155 159 163 160 165 181 169
Wind_Speed_850mb
84 80 82 101 96 89 92 95 97 76 77 88 91 85 91 89 84 80 72 68 66 66 71 78 85 92 95 97 85 72 77 70 60 52 46 38 36 34
64 65 60 76 77 77 80 81 88 99 88 89 94 89 79 81 78 83 77 72 72 77 72 76 85 94 101 95 91 82 83 81 69 60 53 49 42 38
63 54 57 63 65 73 82 90 88 78 95 92 100 94 91 86 79 82 82 80 79 76 77 79 81 88 98 100 99 94 95 94 78 65 62 54 45 40
53 59 60 70 74 82 78 87 93 73 78 87 92 93 101 101 106 96 90 92 87 83 75 77 77 82 87 97 104 103 98 100 86 71 68 56 50 44
36 41 40 42 39 46 54 61 54 60 63 77 93 90 92 100 100 102 98 98 93 89 81 75 73 76 79 82 104 107 104 107 90 74 71 61 55 47
30 34 36 38 42 43 44 48 52 56 59 66 73 72 70 76 81 84 87 84 86 81 78 78 75 75 71 74 104 111 108 115 95 80 73 62 57 56
27 28 32 36 39 42 45 48 53 56 59 61 65 66 63 61 61 65 72 73 73 72 72 74 73 70 61 71 100 111 113 113 105 85 77 68 67 64
15 17 23 27 29 34 39 41 43 50 54 57 63 67 68 69 70 69 69 71 78 70 65 66 63 65 62 70 102 112 111 116 90 84 81 77 72 66
22 23 23 27 30 31 31 33 36 39 44 51 60 60 67 65 69 73 71 72 73 71 70 73 62 58 58 67 100 113 108 106 85 86 83 81 72 66
28 28 32 33 35 39 41 41 42 44 46 50 56 60 59 60 60 62 64 68 72 66 64 67 62 57 60 72 97 104 107 95 75 91 86 81 74 67
33 35 38 43 48 50 51 53 53 53 51 52 54 57 58 56 54 58 58 59 66 68 58 58 55 55 60 72 82 97 101 86 81 92 86 79 75 65
38 38 42 46 53 56 57 59 61 63 65 63 62 60 59 55 50 48 49 53 57 55 50 48 53 47 41 59 69 81 83 78 93 88 81 74 72 69
39 46 52 55 51 52 55 58 60 59 57 59 60 60 58 55 49 40 34 31 45 53 46 33 46 47 38 38 68 78 85 85 85 78 73 72 69 65
53 54 52 49 48 51 52 53 54 54 55 57 57 59 60 56 48 39 33 27 28 38 39 37 36 46 57 42 74 79 83 84 83 77 71 63 58 55
54 50 45 44 45 45 48 49 52 56 57 58 60 57 53 50 46 41 33 32 28 27 26 23 30 35 49 53 70 80 84 78 75 74 66 64 61 56
48 43 42 42 46 46 46 49 50 52 53 52 52 49 46 45 46 43 40 36 30 23 16 14 20 22 31 43 64 82 84 65 71 68 69 65 58 55
38 34 37 41 42 46 50 51 51 50 51 51 49 47 46 46 46 44 38 34 28 21 15 9 3 10 25 38 62 80 77 62 71 70 67 65 56 51
36 42 43 46 49 51 52 53 54 54 53 49 46 44 45 47 48 45 39 31 23 18 14 10 1 7 24 41 50 71 68 64 70 66 64 60 54 49
39 43 45 47 49 50 53 54 56 54 49 45 44 41 39 40 42 41 37 28 21 17 15 10 6 14 30 37 37 46 55 62 70 63 49 46 51 48
42 43 44 44 45 47 47 48 49 48 47 45 40 38 37 37 35 33 31 26 22 17 14 12 6 13 32 44 51 45 36 46 54 49 46 39 41 43
39 40 40 40 41 42 43 44 45 46 46 44 41 38 35 33 30 29 25 24 21 20 21 21 16 9 6 31 57 51 47 40 37 39 40 37 40 39
33 34 35 36 36 37 38 39 40 40 41 43 43 40 37 33 30 27 24 22 21 21 25 27 23 16 26 41 57 55 50 44 35 32 36 30 33 28
26 27 30 31 32 33 34 36 38 38 39 40 41 41 38 34 31 28 30 28 26 23 23 25 27 27 36 43 48 53 52 47 41 36 31 29 27 21
Wind_Direction_850mb
283 283 285 276 265 272 274 275 275 270 271 284 287 295 299 299 296 293 295 288 287 280 267 265 262 259 252 248 239 226 227 234 221 213 224 224 228 232
271 285 290 288 277 273 276 278 281 278 268 280 285 297 293 293 295 293 293 293 288 288 280 267 263 260 250 245 242 229 225 232 223 215 216 224 225 225
290 278 280 280 280 284 279 276 284 282 280 293 297 296 299 294 293 295 293 297 288 285 280 281 269 259 248 241 236 233 224 228 223 217 213 216 222 214
272 269 273 279 281 283 286 286 286 283 280 285 291 292 297 296 294 291 294 292 292 291 292 286 278 268 259 239 233 229 224 222 221 220 213 207 210 208
275 272 278 278 277 272 270 270 263 268 277 286 292 293 292 291 293 295 296 295 295 296 292 289 283 278 265 254 230 226 224 221 219 217 212 205 204 204
273 283 286 288 289 291 291 287 287 288 288 286 286 290 290 291 291 291 292 291 292 291 290 286 283 278 267 244 227 224 223 220 216 222 209 203 201 202
295 297 296 295 298 303 304 303 302 300 301 300 300 298 300 300 298 297 294 294 292 290 287 282 279 273 260 232 229 224 221 221 220 215 205 200 201 205
327 327 322 316 318 319 315 314 314 314 311 309 307 306 305 304 302 298 294 290 290 288 286 281 278 270 258 233 225 224 219 218 224 220 203 201 203 207
29 25 15 4 360 356 354 350 337 327 321 318 315 315 312 309 302 299 297 292 288 288 283 279 275 268 256 237 222 221 219 217 224 216 201 201 202 206
38 28 20 11 3 1 359 355 351 345 335 330 329 325 317 312 305 301 295 291 285 280 277 271 267 257 246 234 221 222 219 218 229 203 202 201 199 203
40 31 23 15 11 7 360 356 353 349 345 339 331 326 322 317 308 301 300 295 288 283 275 265 261 241 231 228 221 216 218 222 213 202 203 203 199 198
38 34 28 23 15 7 3 359 356 355 349 343 338 334 330 326 320 308 298 289 282 280 280 261 250 231 217 222 219 213 218 216 206 204 204 201 199 196
42 36 29 22 13 8 6 3 0 353 348 344 342 338 337 335 331 324 310 300 290 287 282 282 247 226 214 196 196 198 206 207 199 200 199 198 203 205
39 33 25 17 12 11 8 7 1 357 357 355 352 349 346 346 348 344 339 328 312 295 292 288 261 239 221 196 183 190 200 197 194 190 192 197 205 206
35 28 22 18 16 15 13 8 5 5 3 2 360 358 358 357 358 355 359 357 347 322 302 294 260 251 221 203 181 182 181 184 189 188 189 193 193 190
33 25 21 20 20 19 16 13 12 10 9 6 5 4 5 8 10 10 8 4 357 347 315 283 271 272 234 213 196 179 180 171 184 190 190 188 189 190
27 23 23 25 25 24 21 17 17 15 13 10 10 12 14 15 15 14 9 9 6 360 359 3 342 236 211 195 185 182 180 178 181 185 186 180 180 184
22 29 30 31 29 27 24 21 19 19 17 13 13 16 20 21 18 15 13 14 24 33 40 59 42 199 178 166 184 177 177 177 178 181 181 180 174 178
32 36 34 33 32 29 27 24 22 19 16 15 15 16 19 22 22 21 25 26 30 45 59 71 137 192 173 150 157 180 179 171 170 172 183 188 179 173
39 38 36 34 31 29 27 26 25 22 20 21 19 20 22 26 24 31 37 37 39 48 55 53 76 167 163 150 147 153 174 178 178 175 168 167 167 168
40 38 37 35 33 30 29 28 27 25 25 26 28 27 28 28 33 39 44 48 47 57 68 75 79 116 173 157 140 144 161 174 180 181 171 171 170 171
42 44 41 39 38 36 34 33 32 33 35 37 36 34 35 36 43 54 55 52 58 63 73 74 76 97 133 155 142 140 145 152 154 158 161 164 168 182
37 41 51 50 46 44 42 41 38 39 41 45 45 42 41 43 52 59 63 63 63 69 73 83 95 110 128 136 141 144 150 155 159 163 160 165 181 169